When you browse on this site, cookies collect data to enhance your experience and personalize the content and advertising you see.
Visit our Privacy Policy to learn more. By continuing to use the site, you agree to this use of cookies and data.
  • în România
  • Lista ţărilor
  • Pe 7 zile
  • Temperatura apei
  • Hartă satelitară
  • Meteo pe hartă
  • Widget-uri
  • user-avatar
    Intrare

    Meteo pe oră la Tynbaevo

    Astăzi, 21 Mai, Marţi

    Timp Temperatura Precipitaţii Vânt Presiune Umiditate
    00:00 +2°C° 0 mm 3 m/s 747 mmHg 81%
    01:00 +2°C° 0 mm 3 m/s 747 mmHg 82%
    02:00 +2°C° 0 mm 3 m/s 748 mmHg 82%
    03:00 +2°C° 0 mm 3 m/s 748 mmHg 82%
    04:00 +1°C° 0 mm 3 m/s 748 mmHg 82%
    05:00 +3°C° 0 mm 3 m/s 748 mmHg 78%
    06:00 +4°C° 0 mm 3 m/s 748 mmHg 74%
    07:00 +5°C° 0 mm 3 m/s 748 mmHg 71%
    08:00 +7°C° 0 mm 4 m/s 749 mmHg 62%
    09:00 +8°C° 0 mm 5 m/s 749 mmHg 54%
    10:00 +10°C° 0 mm 6 m/s 748 mmHg 46%
    11:00 +10°C° 0 mm 6 m/s 748 mmHg 45%
    12:00 +11°C° 0 mm 6 m/s 748 mmHg 45%
    13:00 +11°C° 0 mm 6 m/s 748 mmHg 44%
    14:00 +12°C° 0 mm 5 m/s 748 mmHg 45%
    15:00 +12°C° 0 mm 5 m/s 748 mmHg 45%
    16:00 +12°C° 0 mm 5 m/s 748 mmHg 46%
    17:00 +12°C° 0 mm 4 m/s 749 mmHg 51%
    18:00 +11°C° 0 mm 4 m/s 749 mmHg 56%
    19:00 +10°C° 0 mm 3 m/s 749 mmHg 61%
    20:00 +9°C° 0 mm 3 m/s 749 mmHg 62%
    21:00 +8°C° 0 mm 3 m/s 749 mmHg 64%
    22:00 +8°C° 0 mm 3 m/s 749 mmHg 65%
    23:00 +7°C° 0 mm 3 m/s 749 mmHg 65%

    Mâine, 22 Mai, Miercuri

    Timp Temperatura Precipitaţii Vânt Presiune Umiditate
    00:00 +7°C° 0 mm 3 m/s 749 mmHg 64%
    01:00 +5°C° 0 mm 3 m/s 749 mmHg 63%
    02:00 +5°C° 0 mm 3 m/s 750 mmHg 64%
    03:00 +5°C° 0 mm 3 m/s 750 mmHg 64%
    04:00 +5°C° 0 mm 3 m/s 750 mmHg 65%
    05:00 +7°C° 0 mm 3 m/s 750 mmHg 65%
    06:00 +7°C° 0 mm 3 m/s 750 mmHg 65%
    07:00 +8°C° 0 mm 3 m/s 750 mmHg 65%
    08:00 +10°C° 0 mm 3 m/s 750 mmHg 58%
    09:00 +11°C° 0 mm 4 m/s 750 mmHg 52%
    10:00 +13°C° 0 mm 4 m/s 749 mmHg 45%
    11:00 +13°C° 0 mm 4 m/s 749 mmHg 43%
    12:00 +14°C° 0 mm 4 m/s 749 mmHg 41%
    13:00 +15°C° 0 mm 4 m/s 749 mmHg 39%
    14:00 +15°C° 0 mm 4 m/s 749 mmHg 40%
    15:00 +15°C° 0 mm 4 m/s 748 mmHg 40%
    16:00 +16°C° 0 mm 3 m/s 748 mmHg 41%
    17:00 +16°C° 0 mm 3 m/s 748 mmHg 46%
    18:00 +15°C° 0 mm 2 m/s 748 mmHg 51%
    19:00 +15°C° 0 mm 1 m/s 747 mmHg 57%
    20:00 +13°C° 0 mm 1 m/s 747 mmHg 59%
    21:00 +12°C° 0 mm 2 m/s 747 mmHg 61%
    22:00 +9°C° 0 mm 2 m/s 747 mmHg 63%
    23:00 +9°C° 0 mm 2 m/s 747 mmHg 68%

    Poimâine, 23 Mai, Joi

    Timp Temperatura Precipitaţii Vânt Presiune Umiditate
    00:00 +9°C° 0 mm 2 m/s 747 mmHg 74%
    01:00 +8°C° 0 mm 3 m/s 747 mmHg 79%
    02:00 +8°C° 0 mm 3 m/s 746 mmHg 83%
    03:00 +8°C° 0 mm 3 m/s 746 mmHg 88%
    04:00 +8°C° 0 mm 3 m/s 745 mmHg 92%
    05:00 +8°C° 0.3 mm 4 m/s 745 mmHg 92%
    06:00 +8°C° 0.3 mm 5 m/s 744 mmHg 92%
    07:00 +9°C° 0.3 mm 6 m/s 743 mmHg 92%
    08:00 +11°C° 0.4 mm 6 m/s 742 mmHg 89%
    09:00 +12°C° 0.4 mm 7 m/s 742 mmHg 86%
    10:00 +15°C° 0.4 mm 7 m/s 741 mmHg 83%
    11:00 +16°C° 0.6 mm 8 m/s 740 mmHg 77%
    12:00 +18°C° 0.6 mm 9 m/s 740 mmHg 71%
    13:00 +19°C° 0.6 mm 11 m/s 739 mmHg 65%
    14:00 +18°C° 0.8 mm 10 m/s 739 mmHg 70%
    15:00 +17°C° 0.8 mm 9 m/s 739 mmHg 74%
    16:00 +15°C° 0.8 mm 8 m/s 739 mmHg 79%
    17:00 +15°C° 1.2 mm 7 m/s 739 mmHg 82%
    18:00 +14°C° 1.2 mm 7 m/s 738 mmHg 86%
    19:00 +12°C° 1.2 mm 7 m/s 738 mmHg 89%
    20:00 +12°C° 1.6 mm 7 m/s 738 mmHg 90%
    21:00 +12°C° 1.6 mm 7 m/s 738 mmHg 91%
    22:00 +11°C° 1.6 mm 7 m/s 738 mmHg 92%
    23:00 +10°C° 2.7 mm 6 m/s 738 mmHg 92%

    24 Mai, Vineri

    Timp Temperatura Precipitaţii Vânt Presiune Umiditate
    00:00 +10°C° 2.7 mm 5 m/s 738 mmHg 92%
    01:00 +9°C° 2.7 mm 5 m/s 738 mmHg 93%
    02:00 +8°C° 0.4 mm 4 m/s 739 mmHg 93%
    03:00 +7°C° 0.4 mm 4 m/s 739 mmHg 93%
    04:00 +7°C° 0.4 mm 4 m/s 739 mmHg 93%
    05:00 +6°C° 0.1 mm 4 m/s 740 mmHg 90%
    06:00 +6°C° 0.1 mm 4 m/s 740 mmHg 87%
    07:00 +6°C° 0.1 mm 5 m/s 741 mmHg 84%
    08:00 +7°C° 0 mm 5 m/s 741 mmHg 76%
    09:00 +8°C° 0 mm 5 m/s 742 mmHg 67%
    10:00 +9°C° 0 mm 5 m/s 742 mmHg 59%
    11:00 +9°C° 0 mm 5 m/s 743 mmHg 56%
    12:00 +11°C° 0 mm 4 m/s 743 mmHg 53%
    13:00 +11°C° 0 mm 4 m/s 743 mmHg 50%
    14:00 +11°C° 0 mm 4 m/s 743 mmHg 53%
    15:00 +10°C° 0 mm 4 m/s 743 mmHg 57%
    16:00 +10°C° 0 mm 4 m/s 744 mmHg 61%
    17:00 +10°C° 0 mm 4 m/s 744 mmHg 62%
    18:00 +9°C° 0 mm 3 m/s 744 mmHg 64%
    19:00 +9°C° 0 mm 3 m/s 745 mmHg 66%
    20:00 +8°C° 0 mm 3 m/s 745 mmHg 67%
    21:00 +5°C° 0 mm 3 m/s 746 mmHg 67%
    22:00 +4°C° 0 mm 3 m/s 747 mmHg 67%
    23:00 +3°C° 0 mm 3 m/s 747 mmHg 68%

    25 Mai, Sâmbătă

    Timp Temperatura Precipitaţii Vânt Presiune Umiditate
    00:00 +3°C° 0 mm 2 m/s 747 mmHg 70%
    01:00 +3°C° 0 mm 2 m/s 748 mmHg 71%
    02:00 +2°C° 0 mm 2 m/s 748 mmHg 73%
    03:00 +2°C° 0 mm 2 m/s 749 mmHg 74%
    04:00 0°C° 0 mm 3 m/s 749 mmHg 76%
    05:00 +1°C° 0 mm 3 m/s 749 mmHg 71%
    06:00 +2°C° 0 mm 3 m/s 750 mmHg 66%
    07:00 +4°C° 0 mm 4 m/s 750 mmHg 61%
    08:00 +5°C° 0 mm 4 m/s 750 mmHg 57%
    09:00 +6°C° 0 mm 4 m/s 751 mmHg 53%
    10:00 +7°C° 0 mm 5 m/s 751 mmHg 49%
    11:00 +7°C° 0 mm 5 m/s 751 mmHg 48%
    12:00 +8°C° 0 mm 5 m/s 751 mmHg 48%
    13:00 +9°C° 0 mm 5 m/s 751 mmHg 47%
    14:00 +10°C° 0 mm 4 m/s 751 mmHg 47%
    15:00 +11°C° 0 mm 4 m/s 751 mmHg 47%
    16:00 +11°C° 0 mm 4 m/s 751 mmHg 47%
    17:00 +11°C° 0 mm 3 m/s 752 mmHg 52%
    18:00 +10°C° 0 mm 2 m/s 752 mmHg 57%
    19:00 +11°C° 0 mm 1 m/s 752 mmHg 62%
    20:00 +9°C° 0 mm 1 m/s 752 mmHg 63%
    21:00 +8°C° 0 mm 1 m/s 752 mmHg 64%
    22:00 +6°C° 0 mm 1 m/s 753 mmHg 65%
    23:00 +5°C° 0 mm 2 m/s 753 mmHg 67%

    26 Mai, Duminică

    Timp Temperatura Precipitaţii Vânt Presiune Umiditate
    00:00 +5°C° 0 mm 2 m/s 753 mmHg 68%
    01:00 +4°C° 0 mm 2 m/s 753 mmHg 69%
    02:00 +4°C° 0 mm 2 m/s 753 mmHg 72%
    03:00 +4°C° 0 mm 2 m/s 753 mmHg 74%
    04:00 +3°C° 0 mm 2 m/s 753 mmHg 76%
    05:00 +4°C° 0 mm 3 m/s 753 mmHg 74%
    06:00 +5°C° 0 mm 3 m/s 754 mmHg 73%
    07:00 +7°C° 0 mm 4 m/s 754 mmHg 71%
    08:00 +8°C° 0 mm 4 m/s 753 mmHg 67%
    09:00 +11°C° 0 mm 4 m/s 753 mmHg 64%
    10:00 +13°C° 0 mm 5 m/s 753 mmHg 60%
    11:00 +13°C° 0 mm 5 m/s 752 mmHg 59%
    12:00 +14°C° 0 mm 5 m/s 752 mmHg 57%
    13:00 +15°C° 0 mm 5 m/s 751 mmHg 55%
    14:00 +16°C° 0 mm 5 m/s 751 mmHg 55%
    15:00 +16°C° 0 mm 5 m/s 750 mmHg 54%
    16:00 +16°C° 0 mm 5 m/s 750 mmHg 54%
    17:00 +17°C° 0 mm 4 m/s 750 mmHg 59%
    18:00 +15°C° 0 mm 4 m/s 749 mmHg 64%
    19:00 +16°C° 0 mm 3 m/s 749 mmHg 70%
    20:00 +13°C° 0 mm 3 m/s 749 mmHg 72%
    21:00 +12°C° 0 mm 3 m/s 748 mmHg 75%
    22:00 +11°C° 0 mm 4 m/s 748 mmHg 78%
    23:00 +11°C° 0 mm 4 m/s 748 mmHg 78%
    Arată mai mult